[[[{"header":{"parameterUnit":"kt","parameterCategory":2,"dx":1,"dy":1,"la1":30.253999710083008,"la2":30.299108505249023,"lo1":-89.0895004272461,"lo2":-89.04439544677734,"nx":28,"ny":28,"refTime":"2022-09-21T09:00:00:Z","depth":0,"parameterNumber":1,"parameterNumberName":"U-component_of_WINDS"},"data":[2.4567,2.4622,2.4613,2.467,2.4671,2.4709,2.4719,2.4732,2.4739,2.4783,2.4806,2.4802,2.4805,2.4831,2.4856,2.4853,2.4864,2.489,2.4883,2.4775,2.4759,2.4744,2.473,2.4893,2.4893,2.4995,2.4996,2.4997,2.4488,2.449,2.4518,2.4538,2.4562,2.4531,2.4544,2.4566,2.4601,2.4611,2.4633,2.4671,2.47,2.4694,2.472,2.4745,2.4731,2.4752,2.475,2.4751,2.4635,2.4621,2.4763,2.4763,2.4763,2.4763,2.4762,2.4762,2.434,2.4374,2.438,2.4411,2.4418,2.4432,2.4462,2.4456,2.4484,2.451,2.4493,2.4532,2.454,2.4566,2.4573,2.4602,2.4577,2.4597,2.4602,2.4607,2.4614,2.4466,2.4606,2.4606,2.4606,2.4605,2.4605,0,2.4229,2.4219,2.4245,2.4269,2.429,2.4308,2.4322,2.434,2.4315,2.4338,2.4372,2.4389,2.4424,2.4454,2.4476,2.4478,2.4448,2.4445,2.4458,2.4466,2.4471,2.4468,2.428,2.4441,2.4439,2.4438,2.4437,2.4437,2.4079,2.4119,2.4122,2.4142,2.4147,2.418,2.4197,2.4172,2.4191,2.4205,2.4235,2.4265,2.4288,2.4343,2.4336,2.4362,2.4347,2.4409,2.4351,2.4357,2.4347,2.4345,2.4348,2.4421,2.4423,2.4425,2.4426,0,2.3995,2.3979,2.4039,2.4037,2.4038,2.4082,2.408,2.4113,2.4103,2.4147,2.4155,2.4141,2.4174,2.4156,2.4191,2.4181,2.4251,2.4237,2.4248,2.4244,2.4298,2.4293,2.4476,2.4498,2.433,2.4332,2.4333,0,2.386,2.3915,2.3887,2.3923,2.3982,2.3955,2.4014,2.4012,2.4018,2.4052,2.4015,2.4048,2.402,2.405,2.4035,2.409,2.4096,2.4092,2.4087,2.4095,2.4095,2.4104,2.4096,2.4075,2.4074,2.4074,2.4073,0,2.3731,2.378,2.3838,2.3846,2.385,2.3878,2.3881,2.3888,2.3905,2.3925,2.3935,2.3961,2.3974,2.3994,2.3975,2.3935,2.4041,2.3983,2.4036,2.4037,2.4061,2.4059,2.4226,2.4072,2.4072,2.4071,2.4071,0,2.3619,2.364,2.3726,2.3728,2.3742,2.378,2.3803,2.3831,2.3841,2.3834,2.3849,2.3822,2.3869,2.3813,2.3877,2.3831,2.3847,2.3847,2.385,2.3853,2.379,2.3886,2.4047,2.4063,2.3856,2.3854,2.3852,0,2.3475,2.3558,2.3535,2.3617,2.3653,2.3608,2.365,2.366,2.3654,2.3683,2.3676,2.371,2.3664,2.3672,2.3706,2.37,2.376,2.3692,2.3733,2.3735,2.3731,2.388,2.3908,2.4014,2.3829,2.3832,2.3833,0,2.3361,2.3365,2.3382,2.339,2.3399,2.3429,2.3477,2.3505,2.3525,2.3541,2.358,2.3627,2.3594,2.3608,2.3589,2.3626,2.3718,2.3585,2.3585,2.3609,2.3816,2.3842,2.386,2.3697,2.37,2.3702,2.3815,0,2.3195,2.3235,2.3278,2.3299,2.3319,2.337,2.3351,2.3375,2.3354,2.3346,2.3404,2.3408,2.3436,2.3452,2.3432,2.3522,2.3504,2.3469,2.3412,2.351,2.3546,2.3561,2.3359,2.3357,2.3356,2.3355,0,0,2.3061,2.3117,2.309,2.3136,2.3152,2.3105,2.3161,2.317,2.3191,2.3203,2.3171,2.3238,2.3243,2.3315,2.3344,2.3356,2.337,2.3337,2.3464,2.3476,2.3487,2.3527,2.3542,2.3352,2.3351,2.3351,2.335,0,2.2996,2.3002,2.3058,2.3067,2.3078,2.3067,2.3081,2.3084,2.3082,2.3139,2.3099,2.3132,2.3187,2.3197,2.3209,2.3328,2.3296,2.3338,2.3408,2.3449,2.3463,2.3476,2.3518,2.3533,2.3347,2.3347,2.3347,0,2.288,2.2882,2.2908,2.2941,2.2948,2.2986,2.2922,2.2965,2.2993,2.294,2.2997,2.2997,2.3009,2.308,2.3111,2.3083,2.3229,2.318,2.3189,2.3192,2.3231,2.3248,2.3264,2.3063,2.3062,2.3061,0,0,2.2827,2.2864,2.2858,2.2925,2.2933,2.2917,2.2936,2.2917,2.2928,2.2933,2.2932,2.2945,2.2976,2.2997,2.3026,2.3107,2.3107,2.3146,2.3159,2.317,2.3179,2.3222,2.3239,2.3058,2.3057,2.3057,0,0,2.2801,2.2798,2.2775,2.285,2.2862,2.2862,2.2903,2.2875,2.2899,2.2891,2.2861,2.2863,2.2929,2.2931,2.2887,2.3005,2.295,2.296,2.3002,2.3019,2.3032,2.303,2.2822,0,0,0,0,0,2.2726,2.2798,2.2777,2.2787,2.2829,2.2873,2.2878,2.2855,2.2816,2.285,2.2844,2.2809,2.2901,2.2861,2.2871,2.292,2.3013,2.3021,2.3028,2.3101,2.3119,2.3134,0,0,0,0,0,0,2.2729,2.2741,2.2775,2.2778,2.2787,2.287,2.2799,2.2795,2.2812,2.2804,2.2811,2.2809,2.279,2.2854,2.2864,2.2911,2.2818,2.3016,2.3023,2.3029,2.3107,2.3122,2.3134,0,0,0,0,0,2.2732,2.2742,2.2815,2.2776,2.2784,2.2771,2.2796,2.2792,2.2805,2.2797,2.2794,2.2786,2.2792,2.2799,2.286,2.2907,2.2812,2.2815,2.302,2.3026,2.303,2.3114,0,0,0,0,0,0,2.2734,2.2738,2.2816,2.2817,2.2747,2.2766,2.2768,2.279,2.2795,2.2793,2.277,2.2764,2.2795,2.2799,2.2804,2.2907,2.2806,2.281,2.2812,2.3024,2.3029,2.3032,0,0,0,0,0,0,2.2733,2.274,2.2817,2.2781,2.2778,2.2761,2.2763,2.2812,2.2796,2.2768,2.2763,2.2767,2.2787,2.28,2.2804,2.288,2.2802,2.2805,2.2808,2.2809,2.3028,2.3031,0,0,0,0,0,0,2.2735,2.2741,2.2781,2.2779,2.2776,2.2792,2.2803,2.2848,2.2766,2.2768,2.2758,2.2754,2.2789,2.2792,2.2804,2.2879,2.288,2.2802,2.2804,2.2806,2.2807,0,0,0,0,0,0,0,2.2737,2.2702,2.2807,2.2776,2.2774,2.2832,2.2832,2.2833,2.2765,2.2762,2.2759,2.2756,2.2782,2.2785,2.2789,2.2878,0,0,2.2802,2.2803,0,0,0,0,0,0,0,0,2.2699,2.2701,2.2807,2.2807,2.2807,2.2832,2.2832,2.2832,2.2765,2.2762,2.2759,2.2757,2.2783,2.2786,2.2789,0,0,0,0,0,0,0,0,0,0,0,0,0,0,0,2.2807,2.2807,0,2.2832,2.2832,2.2832,2.2764,2.2762,2.276,2.2758,2.2784,2.2786,2.2789,0,0,0,0,0,0,0,0,0,0,0,0,0,0,0,0,0,0,0,0,0,0,0,0,0,0,0,0,0,0,0,0,0,0,0,0,0,0,0,0,0,0,0,0,0,0,0,0,0,0,0,0,0,0,0,0,0,0,0,0,0,0,0,0,0,0,0,0,0]}],[{"header":{"parameterUnit":"kt","parameterCategory":2,"dx":1,"dy":1,"la1":30.253999710083008,"la2":30.299108505249023,"lo1":-89.0895004272461,"lo2":-89.04439544677734,"nx":28,"ny":28,"refTime":"2022-09-21T09:00:00:Z","depth":0,"parameterNumber":2,"parameterNumberName":"V-component_of_WINDS"},"data":[-2.8724,-2.8778,-2.8792,-2.8859,-2.8883,-2.8931,-2.8952,-2.8982,-2.9008,-2.9067,-2.9103,-2.9121,-2.9152,-2.9197,-2.9237,-2.9243,-2.9259,-2.927,-2.9276,-2.9218,-2.9211,-2.9204,-2.9192,-2.9273,-2.9273,-2.9335,-2.9335,-2.9336,-2.8685,-2.8709,-2.8748,-2.8795,-2.8829,-2.8827,-2.8864,-2.8892,-2.8935,-2.8967,-2.9003,-2.9055,-2.9098,-2.9125,-2.9168,-2.9193,-2.9194,-2.9204,-2.9202,-2.9207,-2.9145,-2.9133,-2.9202,-2.9202,-2.9202,-2.9202,-2.9202,-2.9202,-2.8616,-2.8647,-2.8683,-2.8725,-2.8752,-2.8784,-2.8815,-2.8837,-2.8875,-2.8921,-2.8928,-2.8976,-2.901,-2.9066,-2.9088,-2.9125,-2.9116,-2.913,-2.9134,-2.9137,-2.914,-2.9052,-2.9133,-2.9133,-2.9133,-2.9132,-2.9132,0,-2.8569,-2.8578,-2.8616,-2.8658,-2.8689,-2.8723,-2.8755,-2.8775,-2.8796,-2.8826,-2.887,-2.8898,-2.8952,-2.8995,-2.9037,-2.9056,-2.9055,-2.9056,-2.9066,-2.9063,-2.9057,-2.9062,-2.8961,-2.9053,-2.9052,-2.9052,-2.9052,-2.9051,-2.8501,-2.8535,-2.8578,-2.8603,-2.8623,-2.8663,-2.8688,-2.8704,-2.8731,-2.8772,-2.8798,-2.8841,-2.8876,-2.8944,-2.8966,-2.9006,-2.9006,-2.904,-2.9012,-2.9009,-2.9007,-2.9005,-2.9009,-2.9045,-2.9046,-2.9046,-2.9047,0,-2.8462,-2.8482,-2.8538,-2.8576,-2.8587,-2.8622,-2.8654,-2.8685,-2.8701,-2.8746,-2.8757,-2.8782,-2.8824,-2.8841,-2.8891,-2.8899,-2.8958,-2.8956,-2.8947,-2.8948,-2.898,-2.8977,-2.9082,-2.9096,-2.9012,-2.9013,-2.9013,0,-2.8411,-2.8455,-2.8482,-2.8513,-2.8563,-2.8577,-2.8625,-2.8643,-2.8672,-2.8707,-2.8709,-2.8742,-2.8758,-2.8793,-2.8804,-2.8854,-2.8864,-2.8872,-2.8874,-2.8872,-2.8871,-2.8885,-2.8881,-2.8877,-2.8876,-2.8876,-2.8875,0,-2.8347,-2.8412,-2.8463,-2.8481,-2.8524,-2.8548,-2.8567,-2.8598,-2.8622,-2.8656,-2.8672,-2.8711,-2.8732,-2.8761,-2.8774,-2.8755,-2.8836,-2.8812,-2.8845,-2.8845,-2.8861,-2.886,-2.8949,-2.8875,-2.8875,-2.8874,-2.8874,0,-2.8308,-2.8343,-2.8414,-2.8451,-2.8467,-2.85,-2.8539,-2.8571,-2.8604,-2.8612,-2.8639,-2.8641,-2.8686,-2.8661,-2.8723,-2.8694,-2.8715,-2.8726,-2.8729,-2.8733,-2.8704,-2.8753,-2.8836,-2.8846,-2.8739,-2.8738,-2.8737,0,-2.8231,-2.8307,-2.8319,-2.8385,-2.8423,-2.8423,-2.846,-2.8488,-2.8503,-2.8536,-2.8552,-2.8589,-2.8574,-2.8588,-2.8616,-2.8634,-2.8672,-2.8629,-2.8677,-2.8679,-2.8669,-2.8746,-2.8754,-2.8817,-2.8723,-2.8724,-2.8725,0,-2.8172,-2.8223,-2.8234,-2.8255,-2.8293,-2.8324,-2.8366,-2.8406,-2.8428,-2.8458,-2.8494,-2.8546,-2.8537,-2.8559,-2.8564,-2.8593,-2.8646,-2.8578,-2.8579,-2.859,-2.8716,-2.8724,-2.8735,-2.8644,-2.8645,-2.8647,-2.8714,0,-2.8111,-2.815,-2.818,-2.8223,-2.8249,-2.8291,-2.8307,-2.8333,-2.8335,-2.8349,-2.8401,-2.8426,-2.8465,-2.848,-2.8482,-2.8543,-2.8535,-2.8523,-2.8499,-2.8549,-2.8572,-2.8581,-2.8464,-2.8464,-2.8463,-2.8463,0,0,-2.8031,-2.8088,-2.8098,-2.8139,-2.8161,-2.8159,-2.8202,-2.8223,-2.8265,-2.828,-2.8267,-2.8344,-2.8363,-2.8425,-2.8442,-2.8457,-2.8469,-2.845,-2.8525,-2.8532,-2.8538,-2.8562,-2.8571,-2.8462,-2.8462,-2.8461,-2.8461,0,-2.8012,-2.8034,-2.8076,-2.8099,-2.8132,-2.8144,-2.8155,-2.8187,-2.8197,-2.8247,-2.8243,-2.8276,-2.8335,-2.8357,-2.8376,-2.8444,-2.8438,-2.8454,-2.8486,-2.8519,-2.8527,-2.8533,-2.8558,-2.8567,-2.846,-2.846,-2.846,0,-2.7957,-2.7982,-2.8003,-2.8053,-2.8074,-2.8111,-2.809,-2.813,-2.8157,-2.815,-2.8199,-2.8215,-2.8245,-2.83,-2.8325,-2.8313,-2.8409,-2.838,-2.8384,-2.8387,-2.8419,-2.8428,-2.8436,-2.8329,-2.8329,-2.8328,0,0,-2.7938,-2.7974,-2.8003,-2.8049,-2.8063,-2.8081,-2.8102,-2.8106,-2.8133,-2.8144,-2.8163,-2.819,-2.8224,-2.8247,-2.8279,-2.8338,-2.8345,-2.8364,-2.837,-2.8375,-2.838,-2.8414,-2.8423,-2.8327,-2.8326,-2.8326,0,0,-2.7928,-2.7964,-2.7962,-2.8018,-2.8045,-2.8075,-2.8103,-2.81,-2.8131,-2.8128,-2.8135,-2.8142,-2.8194,-2.8208,-2.8181,-2.8271,-2.8246,-2.8253,-2.8259,-2.8267,-2.8273,-2.8268,-2.8161,0,0,0,0,0,-2.7916,-2.796,-2.7957,-2.7969,-2.803,-2.8077,-2.8085,-2.8092,-2.8076,-2.8098,-2.8113,-2.8105,-2.8196,-2.8172,-2.8183,-2.8212,-2.8302,-2.8306,-2.831,-2.8332,-2.834,-2.8347,0,0,0,0,0,0,-2.792,-2.7934,-2.7956,-2.7988,-2.8002,-2.8075,-2.8049,-2.8052,-2.8073,-2.8071,-2.8103,-2.8106,-2.8113,-2.8167,-2.8176,-2.8204,-2.8158,-2.8303,-2.8307,-2.8311,-2.8335,-2.8342,-2.8347,0,0,0,0,0,-2.7924,-2.7935,-2.8031,-2.7988,-2.8,-2.8021,-2.8047,-2.805,-2.8066,-2.8089,-2.8093,-2.807,-2.8113,-2.8122,-2.8173,-2.82,-2.8151,-2.8155,-2.8306,-2.8309,-2.8311,-2.8338,0,0,0,0,0,0,-2.7927,-2.7938,-2.8034,-2.8038,-2.7971,-2.8017,-2.8024,-2.8047,-2.8083,-2.8087,-2.8057,-2.8055,-2.8114,-2.8121,-2.8128,-2.8198,-2.8146,-2.8149,-2.8152,-2.8308,-2.831,-2.8312,0,0,0,0,0,0,-2.7932,-2.7941,-2.8036,-2.8014,-2.8016,-2.8013,-2.802,-2.8063,-2.8083,-2.8048,-2.8048,-2.8055,-2.8104,-2.812,-2.8125,-2.8192,-2.8142,-2.8145,-2.8148,-2.8149,-2.831,-2.8312,0,0,0,0,0,0,-2.7936,-2.7944,-2.8013,-2.8015,-2.8016,-2.806,-2.8051,-2.8113,-2.8066,-2.8047,-2.8062,-2.806,-2.8103,-2.8109,-2.8124,-2.8189,-2.8192,-2.8142,-2.8144,-2.8146,-2.8147,0,0,0,0,0,0,0,-2.7939,-2.7883,-2.8011,-2.8015,-2.8016,-2.8074,-2.8075,-2.8076,-2.8066,-2.8064,-2.8062,-2.8061,-2.8122,-2.8125,-2.8129,-2.8186,0,0,-2.8141,-2.8143,0,0,0,0,0,0,0,0,-2.788,-2.7882,-2.8011,-2.8012,-2.8012,-2.8074,-2.8075,-2.8076,-2.8065,-2.8064,-2.8063,-2.8062,-2.8123,-2.8126,-2.8129,0,0,0,0,0,0,0,0,0,0,0,0,0,0,0,-2.8011,-2.8011,0,-2.8074,-2.8075,-2.8075,-2.8065,-2.8064,-2.8063,-2.8062,-2.8123,-2.8126,-2.8129,0,0,0,0,0,0,0,0,0,0,0,0,0,0,0,0,0,0,0,0,0,0,0,0,0,0,0,0,0,0,0,0,0,0,0,0,0,0,0,0,0,0,0,0,0,0,0,0,0,0,0,0,0,0,0,0,0,0,0,0,0,0,0,0,0,0,0,0,0]}]]]